GW5080 Weather Reports


time (UTC)temp
F
wind
direction
speed
knots
gust
knots
rain 1hr
in
rain 24hr
in
rain mn
in
humidity
%
barometer
mb
20260506003004 73 194 8.7 13.9 0.00 0.00 0.00 53 1015.5
20260506002504 73 207 6.1 10.4 0.00 0.00 0.00 53 1015.3
20260506002005 73 192 7.0 13.9 0.00 0.00 0.00 53 1015.3
20260506001505 73 173 5.2 14.8 0.00 0.00 0.00 54 1015.3
20260506001004 73 186 5.2 10.4 0.00 0.00 0.00 53 1015.1
20260506000005 74 213 7.0 14.8 0.00 0.00 0.00 52 1015.1
20260505235005 75 191 7.8 14.8 0.00 0.00 0.00 52 1015.0
20260505234004 75 201 6.1 18.2 0.00 0.00 0.00 51 1015.0
20260505233505 76 187 10.4 17.4 0.00 0.00 0.00 50 1015.0
20260505233005 76 172 6.1 14.8 0.00 0.00 0.00 50 1015.0
20260505232505 76 214 11.3 15.6 0.00 0.00 0.00 50 1014.9
20260505232004 76 195 8.7 15.6 0.00 0.00 0.00 50 1014.9
20260505231505 76 198 8.7 14.8 0.00 0.00 0.00 50 1014.9
20260505231005 76 185 8.7 19.1 0.00 0.00 0.00 50 1015.0
20260505230505 76 186 6.1 13.9 0.00 0.00 0.00 50 1015.0
20260505230004 76 208 7.8 18.2 0.00 0.00 0.00 49 1015.1
20260505225505 77 192 8.7 13.9 0.00 0.00 0.00 49 1015.1
20260505225006 77 191 5.2 17.4 0.00 0.00 0.00 49 1015.1
20260505224006 77 200 8.7 15.6 0.00 0.00 0.00 48 1015.1
20260505223504 77 209 6.1 13.0 0.00 0.00 0.00 48 1015.1
20260505223005 78 193 7.8 14.8 0.00 0.00 0.00 47 1015.1
20260505222005 79 204 10.4 17.4 0.00 0.00 0.00 46 1015.1
20260505221504 79 201 7.8 14.8 0.00 0.00 0.00 46 1015.1
20260505220505 78 196 7.8 15.6 0.00 0.00 0.00 47 1015.2
20260505220004 79 208 6.1 10.4 0.00 0.00 0.00 46 1015.2
20260505215504 79 199 6.1 20.0 0.00 0.00 0.00 45 1015.1
20260505215005 79 229 7.0 17.4 0.00 0.00 0.00 45 1015.1
20260505214505 79 177 4.3 13.0 0.00 0.00 0.00 46 1015.1
20260505213504 79 193 10.4 19.1 0.00 0.00 0.00 44 1015.1
20260505212504 80 187 8.7 19.1 0.00 0.00 0.00 45 1015.2
20260505212004 79 200 6.1 18.2 0.00 0.00 0.00 46 1015.2
20260505211504 79 202 10.4 17.4 0.00 0.00 0.00 45 1015.3
20260505210505 80 176 6.1 13.9 0.00 0.00 0.00 46 1015.5
20260505210005 80 220 9.6 14.8 0.00 0.00 0.00 46 1015.5
20260505205504 79 207 7.8 15.6 0.00 0.00 0.00 47 1015.4
20260505205005 79 208 11.3 20.0 0.00 0.00 0.00 44 1015.4
20260505204005 79 176 8.7 19.1 0.00 0.00 0.00 46 1015.4
20260505203504 80 205 6.1 19.1 0.00 0.00 0.00 46 1015.4
20260505203005 79 231 8.7 20.0 0.00 0.00 0.00 45 1015.4
20260505202505 79 206 11.3 19.1 0.00 0.00 0.00 45 1015.5
20260505202004 79 198 9.6 15.6 0.00 0.00 0.00 46 1015.5
20260505201505 79 211 8.7 18.2 0.00 0.00 0.00 45 1015.6
20260505201004 79 200 10.4 18.2 0.00 0.00 0.00 45 1015.7
20260505200505 79 223 8.7 18.2 0.00 0.00 0.00 44 1015.7
20260505200005 79 207 10.4 15.6 0.00 0.00 0.00 46 1015.8
20260505195506 79 173 12.2 19.1 0.00 0.00 0.00 45 1016.0
20260505194504 79 209 10.4 18.2 0.00 0.00 0.00 47 1016.0
20260505194004 79 194 6.1 17.4 0.00 0.00 0.00 49 1016.2
20260505193504 78 179 8.7 18.2 0.00 0.00 0.00 46 1016.2
20260505193005 78 190 8.7 14.8 0.00 0.00 0.00 47 1016.2
20260505192505 78 184 8.7 14.8 0.00 0.00 0.00 46 1016.5
20260505192005 79 216 10.4 15.6 0.00 0.00 0.00 46 1016.5
20260505191505 79 219 6.1 11.3 0.00 0.00 0.00 47 1016.5
20260505190504 79 214 7.0 15.6 0.00 0.00 0.00 49 1016.6
20260505190005 78 206 9.6 15.6 0.00 0.00 0.00 47 1016.7
20260505185505 79 175 7.0 13.0 0.00 0.00 0.00 48 1017.0
20260505185005 79 195 11.3 14.8 0.00 0.00 0.00 45 1017.0
20260505184004 79 184 8.7 14.8 0.00 0.00 0.00 45 1017.1
20260505183504 78 205 8.7 14.8 0.00 0.00 0.00 47 1017.1
20260505183005 78 236 5.2 17.4 0.00 0.00 0.00 49 1017.1
20260505182505 78 210 6.1 18.2 0.00 0.00 0.00 46 1017.1
20260505182004 79 193 8.7 14.8 0.00 0.00 0.00 45 1017.1
20260505181505 78 204 7.0 15.6 0.00 0.00 0.00 50 1017.1
20260505180504 78 192 7.8 20.0 0.00 0.00 0.00 49 1017.1
20260505175004 79 184 7.0 13.0 0.00 0.00 0.00 49 1017.2
20260505174004 77 167 10.4 14.8 0.00 0.00 0.00 49 1017.2
20260505173505 77 205 6.1 13.0 0.00 0.00 0.00 49 1017.2
20260505173005 78 323 5.2 14.8 0.00 0.00 0.00 48 1017.2
20260505172505 77 198 8.7 14.8 0.00 0.00 0.00 52 1017.4
20260505172005 77 186 7.8 18.2 0.00 0.00 0.00 53 1017.4
20260505171505 76 224 5.2 13.0 0.00 0.00 0.00 54 1017.5
20260505165505 75 199 6.1 18.2 0.00 0.00 0.00 54 1017.6
20260505165005 76 222 7.8 13.9 0.00 0.00 0.00 54 1017.6
20260505164505 75 215 7.8 13.9 0.00 0.00 0.00 54 1017.6
20260505164005 76 200 8.7 15.6 0.00 0.00 0.00 56 1017.6
20260505163504 76 208 9.6 14.8 0.00 0.00 0.00 54 1017.6
20260505163005 75 224 10.4 17.4 0.00 0.00 0.00 55 1017.7
20260505162504 75 221 4.3 10.4 0.00 0.00 0.00 58 1017.9
20260505162005 75 201 5.2 13.0 0.00 0.00 0.00 58 1017.9
20260505161505 74 211 8.7 14.8 0.00 0.00 0.00 57 1018.0
20260505161004 74 184 7.8 18.2 0.00 0.00 0.00 58 1018.2
20260505160505 74 206 7.0 13.9 0.00 0.00 0.00 58 1018.2
20260505153005 73 207 7.8 14.8 0.00 0.00 0.00 60 1018.3
20260505152505 73 239 2.6 11.3 0.00 0.00 0.00 60 1018.4
20260505152005 73 218 8.7 13.9 0.00 0.00 0.00 60 1018.4
20260505151505 73 222 6.1 11.3 0.00 0.00 0.00 63 1018.4
20260505151005 72 293 7.0 11.3 0.00 0.00 0.00 62 1018.3
20260505150505 72 216 7.8 11.3 0.00 0.00 0.00 60 1018.3
20260505140505 70 210 7.8 15.6 0.00 0.00 0.00 66 1018.3
20260505125005 64 215 2.6 8.7 0.00 0.00 0.00 74 1018.4
20260505124005 63 222 4.3 7.0 0.00 0.00 0.00 75 1018.4
20260505123505 62 207 2.6 6.1 0.00 0.00 0.00 75 1018.4
20260505123005 62 232 2.6 7.0 0.00 0.00 0.00 76 1018.4
20260505122504 61 224 4.3 8.7 0.00 0.00 0.00 76 1018.4
20260505122005 61 249 5.2 8.7 0.00 0.00 0.00 77 1018.4
20260505121504 60 223 3.5 7.0 0.00 0.00 0.00 78 1018.3
20260505121005 60 192 4.3 7.0 0.00 0.00 0.00 79 1018.2
20260505120504 59 212 1.7 4.3 0.00 0.00 0.00 81 1018.2
20260505120005 59 196 3.5 6.1 0.00 0.00 0.00 80 1018.2
20260505115005 59 181 0.9 1.7 0.00 0.00 0.00 80 1018.2
20260505114504 59 181 0.9 2.6 0.00 0.00 0.00 80 1018.2
20260505114005 59 355 0.9 0.9 0.00 0.00 0.00 84 1018.2
20260505113504 57 355 0.0 0.9 0.00 0.00 0.00 88 1018.2
20260505113005 56 355 0.0 0.9 0.00 0.00 0.00 90 1018.2
20260505112504 55 355 0.0 0.9 0.00 0.00 0.00 92 1018.2
20260505112005 54 355 0.0 0.0 0.00 0.00 0.00 92 1018.2
20260505111505 53 355 0.0 0.9 0.00 0.00 0.00 93 1018.1
20260505111005 52 355 0.0 0.0 0.00 0.00 0.00 93 1017.9
20260505102005 50 165 0.0 0.9 0.00 0.00 0.00 90 1017.3
20260505101504 50 172 0.9 0.9 0.00 0.00 0.00 90 1017.3
20260505101004 50 172 0.0 0.9 0.00 0.00 0.00 90 1017.2
20260505100504 50 172 0.0 0.9 0.00 0.00 0.00 89 1017.2
20260505100005 50 172 0.0 0.9 0.00 0.00 0.00 89 1017.2
20260505095005 50 172 0.0 0.9 0.00 0.00 0.00 89 1017.1
20260505094504 51 172 0.9 0.9 0.00 0.00 0.00 88 1017.1
20260505094004 51 172 0.9 1.7 0.00 0.00 0.00 88 1017.1
20260505093505 51 172 0.9 1.7 0.00 0.00 0.00 87 1017.1
20260505092504 52 172 0.9 1.7 0.00 0.00 0.00 86 1016.9
20260505092005 52 172 0.9 1.7 0.00 0.00 0.00 86 1016.9
20260505091505 53 172 0.0 0.0 0.00 0.00 0.00 85 1016.9
20260505091004 53 172 0.0 0.0 0.00 0.00 0.00 84 1016.8
20260505090504 53 172 0.0 0.0 0.00 0.00 0.00 84 1016.8
20260505090005 54 172 0.0 0.0 0.00 0.00 0.00 83 1016.8
20260505085504 54 172 0.9 0.9 0.00 0.00 0.00 82 1016.8
20260505085005 54 172 0.0 0.9 0.00 0.00 0.00 81 1016.8
20260505084504 55 172 0.9 0.9 0.00 0.00 0.00 81 1016.8
20260505083504 56 194 0.9 0.9 0.00 0.00 0.00 79 1016.7
20260505082504 57 194 0.0 0.9 0.00 0.00 0.00 77 1016.6
20260505082005 57 194 0.0 0.9 0.00 0.00 0.00 76 1016.6
20260505081504 57 194 0.9 2.6 0.00 0.00 0.00 76 1016.6
20260505081005 57 176 0.9 1.7 0.00 0.00 0.00 76 1016.6
20260505080504 58 161 0.9 1.7 0.00 0.00 0.00 76 1016.6
20260505080004 58 184 0.9 1.7 0.00 0.00 0.00 75 1016.6
20260505075504 58 179 0.9 2.6 0.00 0.00 0.00 75 1016.5
20260505075005 58 200 2.6 4.3 0.00 0.00 0.00 75 1016.5
20260505074504 58 194 1.7 2.6 0.00 0.00 0.00 74 1016.5
20260505073504 59 200 2.6 4.3 0.00 0.00 0.00 73 1016.5
20260505073004 59 194 2.6 4.3 0.00 0.00 0.00 73 1016.5
20260505072504 59 171 2.6 4.3 0.00 0.00 0.00 72 1016.5
20260505072005 59 181 2.6 5.2 0.00 0.00 0.00 72 1016.5
20260505071504 60 190 4.3 10.4 0.00 0.00 0.00 72 1016.5
20260505071005 60 195 4.3 6.1 0.00 0.00 0.00 71 1016.5
20260505070504 60 200 2.6 6.1 0.00 0.00 0.00 71 1016.5
20260505070005 60 202 2.6 8.7 0.00 0.00 0.00 70 1016.5
20260505065504 60 207 4.3 6.1 0.00 0.00 0.00 70 1016.4
20260505064504 60 204 3.5 7.0 0.00 0.00 0.00 69 1016.4
20260505063505 60 210 2.6 5.2 0.00 0.00 0.00 69 1016.4
20260505063005 61 213 4.3 7.0 0.00 0.00 0.00 69 1016.4
20260505062505 61 204 2.6 7.0 0.00 0.00 0.00 68 1016.4
20260505062004 61 208 3.5 7.8 0.00 0.00 0.00 68 1016.4
20260505061004 61 189 4.3 7.0 0.00 0.00 0.00 68 1016.5
20260505060505 61 199 2.6 5.2 0.00 0.00 0.00 68 1016.5
20260505060005 61 189 4.3 7.0 0.00 0.00 0.00 68 1016.5
20260505055505 61 187 1.7 6.1 0.00 0.00 0.00 67 1016.6
20260505055005 61 197 5.2 7.0 0.00 0.00 0.00 67 1016.6
20260505054504 62 205 2.6 6.1 0.00 0.00 0.00 66 1016.6
20260505054004 62 191 5.2 8.7 0.00 0.00 0.00 66 1016.7
20260505053505 62 207 4.3 7.0 0.00 0.00 0.00 66 1016.7
20260505053005 62 212 3.5 6.1 0.00 0.00 0.00 66 1016.7
20260505052504 62 216 4.3 8.7 0.00 0.00 0.00 66 1016.8
20260505052005 62 206 4.3 7.8 0.00 0.00 0.00 65 1016.8
20260505051504 62 203 5.2 7.0 0.00 0.00 0.00 65 1016.8
20260505051004 63 223 4.3 10.4 0.00 0.00 0.00 65 1016.9
20260505041506 63 215 3.5 13.0 0.00 0.00 0.00 65 1016.8
20260505041006 63 200 6.1 13.0 0.00 0.00 0.00 65 1016.7
20260505040505 63 206 6.1 10.4 0.00 0.00 0.00 65 1016.7
20260505040005 64 215 5.2 8.7 0.00 0.00 0.00 64 1016.7
20260505035504 64 196 5.2 11.3 0.00 0.00 0.00 64 1016.7
20260505035004 64 200 5.2 11.3 0.00 0.00 0.00 64 1016.7
20260505034504 64 197 5.2 8.7 0.00 0.00 0.00 64 1016.7
20260505034005 64 222 6.1 13.9 0.00 0.00 0.00 63 1016.7
20260505033005 64 206 5.2 10.4 0.00 0.00 0.00 63 1016.7
20260505032504 64 196 7.8 11.3 0.00 0.00 0.00 63 1016.7
20260505032004 64 207 5.2 13.0 0.00 0.00 0.00 62 1016.7
20260505031504 65 192 5.2 13.9 0.00 0.00 0.00 62 1016.7
20260505031004 65 219 4.3 8.7 0.00 0.00 0.00 62 1016.7
20260505030004 65 206 7.0 13.0 0.00 0.00 0.00 62 1016.7
20260505025004 65 198 6.1 13.0 0.00 0.00 0.00 62 1016.8
20260505024004 66 196 7.0 13.9 0.00 0.00 0.00 62 1016.6
20260505023505 66 185 6.1 13.0 0.00 0.00 0.00 62 1016.6
20260505022504 66 222 5.2 13.0 0.00 0.00 0.00 61 1016.6
20260505022005 67 197 8.7 14.8 0.00 0.00 0.00 61 1016.6
20260505021505 67 209 7.0 14.8 0.00 0.00 0.00 61 1016.5
20260505021005 67 216 8.7 18.2 0.00 0.00 0.00 61 1016.5
20260505020005 67 185 6.1 10.4 0.00 0.00 0.00 60 1016.4
20260505015505 68 197 6.1 13.0 0.00 0.00 0.00 60 1016.3
20260505014505 68 178 9.6 14.8 0.00 0.00 0.00 59 1016.3
20260505014005 68 210 10.4 18.2 0.00 0.00 0.00 59 1016.1
20260505013504 68 198 5.2 14.8 0.00 0.00 0.00 59 1016.1
20260505013004 68 204 7.8 19.1 0.00 0.00 0.00 59 1016.0
20260505012505 69 201 7.0 13.9 0.00 0.00 0.00 58 1015.9
20260505012005 69 201 10.4 17.4 0.00 0.00 0.00 57 1015.9
20260505011505 69 193 8.7 15.6 0.00 0.00 0.00 55 1015.8
20260505011005 69 202 6.1 13.9 0.00 0.00 0.00 54 1015.5
20260505010505 69 198 7.0 13.0 0.00 0.00 0.00 50 1015.5
20260505010004 70 192 6.1 11.3 0.00 0.00 0.00 48 1015.4
20260505005505 70 201 4.3 11.3 0.00 0.00 0.00 46 1015.1
20260505005005 70 199 6.1 13.9 0.00 0.00 0.00 46 1015.1
20260505004504 70 194 4.3 7.0 0.00 0.00 0.00 45 1015.1
20260505004004 70 182 3.5 10.4 0.00 0.00 0.00 45 1015.0
20260505003505 70 186 2.6 7.0 0.00 0.00 0.00 45 1015.0